Time,TemperatureF,DewpointF,PressureIn,WindDirection,WindDirectionDegrees,WindSpeedMPH,WindSpeedGustMPH,Humidity,HourlyPrecipIn,Conditions,Clouds,dailyrainin,SolarRadiationWatts/m^2,SoftwareType,DateUTC
2013-02-09 00:21:00,36.0,36.0,-100.00,North,359,6.0,10.0,100,0.00,,,0.85,0.000000,,2013-02-09 09:21:00,
2013-02-09 00:31:00,36.0,36.0,-100.00,North,359,6.0,10.0,100,0.00,,,0.85,0.000000,,2013-02-09 09:31:00,
2013-02-09 00:41:00,36.0,36.0,-100.00,North,359,6.0,10.0,100,0.00,,,0.85,0.000000,,2013-02-09 09:41:00,
2013-02-09 00:51:00,36.0,36.0,-100.00,North,359,6.0,10.0,100,0.00,,,0.85,0.000000,,2013-02-09 09:51:00,
2013-02-09 01:21:00,37.0,37.0,-100.00,North,356,6.0,9.0,100,0.00,,,0.83,0.000000,,2013-02-09 10:21:00,
2013-02-09 01:31:00,37.0,37.0,-100.00,North,356,6.0,9.0,100,0.00,,,0.83,0.000000,,2013-02-09 10:31:00,
2013-02-09 01:41:00,37.0,37.0,-100.00,North,356,6.0,9.0,100,0.00,,,0.83,0.000000,,2013-02-09 10:41:00,
2013-02-09 01:51:00,37.0,37.0,-100.00,North,356,6.0,9.0,100,0.00,,,0.83,0.000000,,2013-02-09 10:51:00,
2013-02-09 02:21:00,37.0,37.0,-100.00,North,355,5.0,9.0,100,0.00,,,0.78,0.000000,,2013-02-09 11:21:00,
2013-02-09 02:31:00,37.0,37.0,-100.00,North,355,5.0,9.0,100,0.00,,,0.78,0.000000,,2013-02-09 11:31:00,
2013-02-09 02:41:00,37.0,37.0,-100.00,North,355,5.0,9.0,100,0.00,,,0.78,0.000000,,2013-02-09 11:41:00,
2013-02-09 02:52:00,37.0,37.0,-100.00,North,355,5.0,9.0,100,0.00,,,0.78,0.000000,,2013-02-09 11:52:00,
2013-02-09 03:21:00,37.0,37.0,-100.00,North,7,6.0,9.0,100,0.00,,,0.73,0.000000,,2013-02-09 12:21:00,
2013-02-09 03:32:00,37.0,37.0,-100.00,North,7,6.0,9.0,100,0.00,,,0.73,0.000000,,2013-02-09 12:32:00,
2013-02-09 03:42:00,37.0,37.0,-100.00,North,7,6.0,9.0,100,0.00,,,0.73,0.000000,,2013-02-09 12:42:00,
2013-02-09 03:52:00,37.0,37.0,-100.00,North,7,6.0,9.0,100,0.00,,,0.73,0.000000,,2013-02-09 12:52:00,
2013-02-09 04:21:00,36.0,36.0,-100.00,NNE,20,2.0,10.0,100,0.00,,,0.68,0.000000,,2013-02-09 13:21:00,
2013-02-09 04:32:00,36.0,36.0,-100.00,NNE,20,2.0,10.0,100,0.00,,,0.68,0.000000,,2013-02-09 13:32:00,
2013-02-09 04:42:00,36.0,36.0,-100.00,NNE,20,2.0,10.0,100,0.00,,,0.68,0.000000,,2013-02-09 13:42:00,
2013-02-09 04:51:00,36.0,36.0,-100.00,NNE,20,2.0,10.0,100,0.00,,,0.68,0.000000,,2013-02-09 13:51:00,
2013-02-09 05:21:00,36.0,36.0,-100.00,SW,229,4.0,6.0,100,0.00,,,0.62,0.000000,,2013-02-09 14:21:00,
2013-02-09 05:31:00,36.0,36.0,-100.00,SW,229,4.0,6.0,100,0.00,,,0.62,0.000000,,2013-02-09 14:31:00,
2013-02-09 05:41:00,36.0,36.0,-100.00,SW,229,4.0,6.0,100,0.00,,,0.62,0.000000,,2013-02-09 14:41:00,
2013-02-09 05:52:00,36.0,36.0,-100.00,SW,229,4.0,6.0,100,0.00,,,0.62,0.000000,,2013-02-09 14:52:00,
2013-02-09 06:21:00,36.0,36.0,-100.00,WNW,286,1.0,8.0,100,0.00,,,0.53,0.000000,,2013-02-09 15:21:00,
2013-02-09 06:31:00,36.0,36.0,-100.00,WNW,286,1.0,8.0,100,0.00,,,0.53,0.000000,,2013-02-09 15:31:00,
2013-02-09 06:41:00,36.0,36.0,-100.00,WNW,286,1.0,8.0,100,0.00,,,0.53,0.000000,,2013-02-09 15:41:00,
2013-02-09 06:51:00,36.0,36.0,-100.00,WNW,286,1.0,8.0,100,0.00,,,0.53,0.000000,,2013-02-09 15:51:00,
2013-02-09 07:22:00,36.0,36.0,-100.00,NE,53,1.0,5.0,100,0.00,,,0.38,0.000000,,2013-02-09 16:22:00,
2013-02-09 07:31:00,36.0,36.0,-100.00,NE,53,1.0,5.0,100,0.00,,,0.38,0.000000,,2013-02-09 16:31:00,
2013-02-09 07:41:00,36.0,36.0,-100.00,NE,53,1.0,5.0,100,0.00,,,0.38,0.000000,,2013-02-09 16:41:00,
2013-02-09 07:51:00,36.0,36.0,-100.00,NE,53,1.0,5.0,100,0.00,,,0.38,0.000000,,2013-02-09 16:51:00,
2013-02-09 08:21:00,37.0,37.0,-100.00,NW,304,2.0,8.0,100,0.00,,,0.24,2.000000,,2013-02-09 17:21:00,
2013-02-09 08:32:00,37.0,37.0,-100.00,NW,304,2.0,8.0,100,0.00,,,0.24,2.000000,,2013-02-09 17:32:00,
2013-02-09 08:41:00,37.0,37.0,-100.00,NW,304,2.0,8.0,100,0.00,,,0.24,2.000000,,2013-02-09 17:41:00,
2013-02-09 08:52:00,37.0,37.0,-100.00,NW,304,2.0,8.0,100,0.00,,,0.24,2.000000,,2013-02-09 17:52:00,
2013-02-09 09:23:00,38.0,38.0,-100.00,ESE,112,0.0,4.0,100,0.00,,,0.13,21.000000,,2013-02-09 18:23:00,
2013-02-09 09:32:00,38.0,38.0,-100.00,ESE,112,0.0,4.0,100,0.00,,,0.13,21.000000,,2013-02-09 18:32:00,
2013-02-09 09:41:00,38.0,38.0,-100.00,ESE,112,0.0,4.0,100,0.00,,,0.13,21.000000,,2013-02-09 18:41:00,
2013-02-09 09:51:00,38.0,38.0,-100.00,ESE,112,0.0,4.0,100,0.00,,,0.13,21.000000,,2013-02-09 18:51:00,
2013-02-09 10:22:00,38.0,38.0,-100.00,NW,320,3.0,9.0,100,0.00,,,0.10,39.000000,,2013-02-09 19:22:00,
2013-02-09 10:31:00,38.0,38.0,-100.00,NW,320,3.0,9.0,100,0.00,,,0.10,39.000000,,2013-02-09 19:31:00,
2013-02-09 10:41:00,38.0,38.0,-100.00,NW,320,3.0,9.0,100,0.00,,,0.10,39.000000,,2013-02-09 19:41:00,
2013-02-09 10:52:00,38.0,38.0,-100.00,NW,320,3.0,9.0,100,0.00,,,0.10,39.000000,,2013-02-09 19:52:00,
2013-02-09 11:21:00,39.0,39.0,-100.00,NW,314,7.0,15.0,100,0.00,,,0.08,63.000000,,2013-02-09 20:21:00,
2013-02-09 11:31:00,39.0,39.0,-100.00,NW,314,7.0,15.0,100,0.00,,,0.08,63.000000,,2013-02-09 20:31:00,
2013-02-09 11:41:00,39.0,39.0,-100.00,NW,314,7.0,15.0,100,0.00,,,0.08,63.000000,,2013-02-09 20:41:00,
2013-02-09 11:52:00,39.0,39.0,-100.00,NW,314,7.0,15.0,100,0.00,,,0.08,63.000000,,2013-02-09 20:52:00,
2013-02-09 12:21:00,39.0,39.0,-100.00,NW,326,4.0,15.0,100,0.00,,,0.08,65.000000,,2013-02-09 21:21:00,
2013-02-09 12:31:00,39.0,39.0,-100.00,NW,326,4.0,15.0,100,0.00,,,0.08,65.000000,,2013-02-09 21:31:00,
2013-02-09 12:41:00,39.0,39.0,-100.00,NW,326,4.0,15.0,100,0.00,,,0.08,65.000000,,2013-02-09 21:41:00,
2013-02-09 12:52:00,39.0,39.0,-100.00,NW,326,4.0,15.0,100,0.00,,,0.08,65.000000,,2013-02-09 21:52:00,
2013-02-09 13:21:00,40.0,40.0,-100.00,NNW,335,4.0,9.0,100,0.01,,,0.07,73.000000,,2013-02-09 22:21:00,
2013-02-09 13:31:00,40.0,40.0,-100.00,NNW,335,4.0,9.0,100,0.01,,,0.07,73.000000,,2013-02-09 22:31:00,
2013-02-09 13:41:00,40.0,40.0,-100.00,NNW,335,4.0,9.0,100,0.01,,,0.07,73.000000,,2013-02-09 22:41:00,
2013-02-09 13:51:00,40.0,40.0,-100.00,NNW,335,4.0,9.0,100,0.01,,,0.07,73.000000,,2013-02-09 22:51:00,
2013-02-09 14:21:00,40.0,40.0,-100.00,WNW,301,2.0,9.0,100,0.03,,,0.08,70.000000,,2013-02-09 23:21:00,
2013-02-09 14:31:00,40.0,40.0,-100.00,WNW,301,2.0,9.0,100,0.03,,,0.08,70.000000,,2013-02-09 23:31:00,
2013-02-09 14:41:00,40.0,40.0,-100.00,WNW,301,2.0,9.0,100,0.03,,,0.08,70.000000,,2013-02-09 23:41:00,
2013-02-09 14:52:00,40.0,40.0,-100.00,WNW,301,2.0,9.0,100,0.03,,,0.08,70.000000,,2013-02-09 23:52:00,
2013-02-09 15:21:00,39.0,39.0,-100.00,NNW,345,2.0,9.0,100,0.00,,,0.07,20.000000,,2013-02-10 00:21:00,
2013-02-09 15:32:00,39.0,39.0,-100.00,NNW,345,2.0,9.0,100,0.00,,,0.07,20.000000,,2013-02-10 00:32:00,
2013-02-09 15:41:00,39.0,39.0,-100.00,NNW,345,2.0,9.0,100,0.00,,,0.07,20.000000,,2013-02-10 00:41:00,
2013-02-09 15:51:00,39.0,39.0,-100.00,NNW,345,2.0,9.0,100,0.00,,,0.07,20.000000,,2013-02-10 00:51:00,
2013-02-09 16:21:00,40.0,40.0,-100.00,NNW,331,6.0,14.0,100,0.01,,,0.06,15.000000,,2013-02-10 01:21:00,
2013-02-09 16:31:00,40.0,40.0,-100.00,NNW,331,6.0,14.0,100,0.01,,,0.06,15.000000,,2013-02-10 01:31:00,
2013-02-09 16:41:00,40.0,40.0,-100.00,NNW,331,6.0,14.0,100,0.01,,,0.06,15.000000,,2013-02-10 01:41:00,
2013-02-09 16:51:00,40.0,40.0,-100.00,NNW,331,6.0,14.0,100,0.01,,,0.06,15.000000,,2013-02-10 01:51:00,
2013-02-09 17:22:00,40.0,40.0,-100.00,NNW,334,7.0,16.0,100,0.01,,,0.07,2.000000,,2013-02-10 02:22:00,
2013-02-09 17:31:00,40.0,40.0,-100.00,NNW,334,7.0,16.0,100,0.01,,,0.07,2.000000,,2013-02-10 02:31:00,
2013-02-09 17:41:00,40.0,40.0,-100.00,NNW,334,7.0,16.0,100,0.01,,,0.07,2.000000,,2013-02-10 02:41:00,
2013-02-09 17:52:00,40.0,40.0,-100.00,NNW,334,7.0,16.0,100,0.01,,,0.07,2.000000,,2013-02-10 02:52:00,
2013-02-09 18:21:00,40.0,40.0,-100.00,NNW,331,11.0,19.0,100,0.03,,,0.10,0.000000,,2013-02-10 03:21:00,
2013-02-09 18:32:00,40.0,40.0,-100.00,NNW,331,11.0,19.0,100,0.03,,,0.10,0.000000,,2013-02-10 03:32:00,
2013-02-09 18:41:00,40.0,40.0,-100.00,NNW,331,11.0,19.0,100,0.03,,,0.10,0.000000,,2013-02-10 03:41:00,
2013-02-09 18:51:00,40.0,40.0,-100.00,NNW,331,11.0,19.0,100,0.03,,,0.10,0.000000,,2013-02-10 03:51:00,
2013-02-09 19:21:00,40.0,40.0,-100.00,NNW,347,13.0,21.0,100,0.01,,,0.10,0.000000,,2013-02-10 04:21:00,
2013-02-09 19:32:00,40.0,40.0,-100.00,NNW,347,13.0,21.0,100,0.01,,,0.10,0.000000,,2013-02-10 04:32:00,
2013-02-09 19:41:00,40.0,40.0,-100.00,NNW,347,13.0,21.0,100,0.01,,,0.10,0.000000,,2013-02-10 04:41:00,
2013-02-09 19:51:00,40.0,40.0,-100.00,NNW,347,13.0,21.0,100,0.01,,,0.10,0.000000,,2013-02-10 04:51:00,
2013-02-09 20:22:00,41.0,41.0,-100.00,NNW,334,13.0,25.0,100,0.02,,,0.12,0.000000,,2013-02-10 05:22:00,
2013-02-09 20:31:00,41.0,41.0,-100.00,NNW,334,13.0,25.0,100,0.02,,,0.12,0.000000,,2013-02-10 05:31:00,
2013-02-09 20:41:00,41.0,41.0,-100.00,NNW,334,13.0,25.0,100,0.02,,,0.12,0.000000,,2013-02-10 05:41:00,
2013-02-09 20:52:00,41.0,41.0,-100.00,NNW,334,13.0,25.0,100,0.02,,,0.12,0.000000,,2013-02-10 05:52:00,
2013-02-09 21:21:00,41.0,41.0,-100.00,NNW,340,14.0,25.0,100,0.00,,,0.12,0.000000,,2013-02-10 06:21:00,
2013-02-09 21:32:00,41.0,41.0,-100.00,NNW,340,14.0,25.0,100,0.00,,,0.12,0.000000,,2013-02-10 06:32:00,
2013-02-09 21:42:00,41.0,41.0,-100.00,NNW,340,14.0,25.0,100,0.00,,,0.12,0.000000,,2013-02-10 06:42:00,
2013-02-09 21:51:00,41.0,41.0,-100.00,NNW,340,14.0,25.0,100,0.00,,,0.12,0.000000,,2013-02-10 06:51:00,
2013-02-09 22:21:00,41.0,41.0,-100.00,NNW,328,13.0,24.0,100,0.00,,,0.12,0.000000,,2013-02-10 07:21:00,
2013-02-09 22:31:00,41.0,41.0,-100.00,NNW,328,13.0,24.0,100,0.00,,,0.12,0.000000,,2013-02-10 07:31:00,
2013-02-09 22:41:00,41.0,41.0,-100.00,NNW,328,13.0,24.0,100,0.00,,,0.12,0.000000,,2013-02-10 07:41:00,
2013-02-09 22:51:00,41.0,41.0,-100.00,NNW,328,13.0,24.0,100,0.00,,,0.12,0.000000,,2013-02-10 07:51:00,
2013-02-09 23:21:00,40.0,40.0,-100.00,NNW,335,12.0,21.0,100,0.02,,,0.14,0.000000,,2013-02-10 08:21:00,
2013-02-09 23:32:00,40.0,40.0,-100.00,NNW,335,12.0,21.0,100,0.02,,,0.14,0.000000,,2013-02-10 08:32:00,
2013-02-09 23:43:00,40.0,40.0,-100.00,NNW,335,12.0,21.0,100,0.02,,,0.14,0.000000,,2013-02-10 08:43:00,
2013-02-09 23:52:00,40.0,40.0,-100.00,NNW,335,12.0,21.0,100,0.02,,,0.14,0.000000,,2013-02-10 08:52:00,